C/2012 A2 ( LINEAR )

Japanese version
Home page
Updated on September 28, 2014

---------------------------------------------------------------------

* Profile

Discovery Date January 15, 2012
Magnitude 18.5 mag
Discoverer Lincoln Laboratory Near-Earth Asteroid Research project

* Pictures

* Orbital Elements

Epoch 2012 Nov. 9.0 TT = JDT 2456240.5
T 2012 Nov. 5.09152 TT                                  MPC
q   3.5374689            (2000.0)            P               Q
z  +0.0010327      Peri.  101.66966     +0.08481654     +0.98342896
 +/-0.0000002      Node   191.40403     +0.23708648     +0.13627188
e   0.9963468      Incl.  125.86864     +0.96777898     -0.11957200
From 2485 observations 2011 Apr. 2-2014 Sept. 20, mean residual 0".5.

* Finding Charts

* Magnitudes Graph

        m1 = 5.5 + 5 log d + 13.0 log r(t - 100)

---------------------------------------------------------------------

The orbital elements are published on M.P.E.C. 2014-S34.
The charts are made with StellaNavigator Ver.8 (AstroArts).
The magnitudes graphs are made with Comet for Windows.

---------------------------------------------------------------------

Copyright(C) Seiichi Yoshida (comet@aerith.net). All rights reserved.